Bedford Park, IL

7:02 AM CST on February 14, 2016 (GMT -0600)
Chicago-Midway

Weather History for KMDW - June, 2014

Change the Weather History Date:

Monday, June 23, 2014

  Actual Average Record
Temperature  
Mean Temperature 77 °F 74 °F  
Max Temperature 84 °F 82 °F 99 °F (1930)
Min Temperature 69 °F 65 °F 46 °F (1972)
Degree Days  
Heating Degree Days 0 0  
Month to date heating degree days 2 29  
Since 1 June heating degree days 2 29  
Since 1 July heating degree days 6809 5988  
Cooling Degree Days 12 9  
Month to date cooling degree days 171 139  
Year to date cooling degree days 282 213  
Since 1 June cooling degree days 171 139  
Growing Degree Days 26 (Base 50)    
Moisture  
Dew Point 69 °F    
Average Humidity 80    
Maximum Humidity 93    
Minimum Humidity 59    
Precipitation  
Precipitation 0.16 in 0.12 in 2.20 in (1931)
Month to date precipitation 4.29 3.23  
Year to date precipitation 15.58 17.72  
Sea Level Pressure  
Sea Level Pressure 29.83 in    
Wind  
Wind Speed 6 mph (SW)    
Max Wind Speed 13 mph    
Max Gust Speed 16 mph    
Visibility 8 miles    
Events Rain    
T = Trace of Precipitation, MM = Missing Value Source: NWS Daily Summary

Daily Weather History Graph

Daily Weather History Graph

Search for Another Location

Airport or City:

Trip Planner

Search our weather history database for the weather conditions in past years. The results will help you decide how hot, cold, wet, or windy it might be!

Date:

Astronomy

Jun. 23, 2014 Rise Set
Actual Time 5:16 AM CDT 8:29 PM CDT
Civil Twilight 4:42 AM CDT 9:04 PM CDT
Nautical Twilight 3:58 AM CDT 9:48 PM CDT
Astronomical Twilight 3:05 AM CDT 10:41 PM CDT
Moon 2:45 AM CDT (6/23) 5:08 PM CDT (6/23)
Length of Visible Light 16h 21m
Length of Day
15h 12m
Waning Crescent, 13% of the Moon is Illuminated
Jun 23
Waning Crescent
Jun 27
New
Jul 5
First Quarter
Jul 12
Full
Jul 18
Last Quarter

Hourly Weather History & Observations

Time (CDT) Temp. Heat Index Dew Point Humidity Pressure Visibility Wind Dir Wind Speed Gust Speed Precip Events Conditions
12:51 AM 69.1 °F - 63.0 °F 81% 29.84 in 10.0 mi Calm Calm - N/A   Overcast
1:51 AM 69.1 °F - 63.0 °F 81% 29.82 in 7.0 mi Calm Calm - N/A   Overcast
2:51 AM 69.1 °F - 64.0 °F 84% 29.82 in 6.0 mi NNE 4.6 mph - 0.00 in Rain Light Rain
3:51 AM 69.1 °F - 64.9 °F 87% 29.82 in 6.0 mi Calm Calm - 0.01 in Rain Light Rain
4:51 AM 70.0 °F - 66.9 °F 90% 29.82 in 5.0 mi SSE 3.5 mph - 0.04 in Rain Light Rain
5:51 AM 70.0 °F - 68.0 °F 93% 29.83 in 6.0 mi West 3.5 mph - 0.01 in Rain Light Rain
6:25 AM 70.0 °F - 68.0 °F 93% 29.86 in 2.0 mi West 3.5 mph - 0.01 in Rain Light Rain
6:44 AM 71.1 °F - 68.0 °F 90% 29.85 in 3.0 mi SSW 3.5 mph - 0.02 in Rain Light Rain
6:51 AM 71.1 °F - 68.0 °F 90% 29.83 in 4.0 mi Calm Calm - 0.02 in Rain Light Rain
7:51 AM 72.0 °F - 68.0 °F 87% 29.84 in 6.0 mi WSW 4.6 mph - 0.00 in   Overcast
8:51 AM 73.0 °F - 68.0 °F 84% 29.84 in 10.0 mi SW 4.6 mph - 0.00 in Rain Light Rain
9:51 AM 73.9 °F - 68.0 °F 82% 29.86 in 4.0 mi SSW 5.8 mph - 0.03 in Rain Light Rain
10:51 AM 73.0 °F - 69.1 °F 87% 29.85 in 10.0 mi SSE 5.8 mph - 0.05 in   Overcast
11:51 AM 75.9 °F - 70.0 °F 82% 29.84 in 10.0 mi SSE 6.9 mph - N/A   Overcast
12:51 PM 78.8 °F - 71.6 °F 78% 29.86 in 10.0 mi SSW 9.2 mph - N/A   Overcast
1:26 PM 79.0 °F - 71.1 °F 77% 29.85 in 10.0 mi WSW 5.8 mph - N/A   Overcast
1:51 PM 80.1 °F 83.6 °F 71.1 °F 74% 29.82 in 10.0 mi West 10.4 mph - N/A   Overcast
2:51 PM 80.6 °F 84.6 °F 71.6 °F 74% 29.82 in 10.0 mi West 10.4 mph - N/A   Mostly Cloudy
3:51 PM 82.9 °F 87.5 °F 71.1 °F 67% 29.79 in 10.0 mi NW 8.1 mph - N/A   Mostly Cloudy
4:51 PM 82.0 °F 85.9 °F 70.0 °F 67% 29.79 in 10.0 mi West 8.1 mph - N/A   Mostly Cloudy
5:51 PM 78.1 °F - 69.1 °F 74% 29.80 in 10.0 mi East 10.4 mph - N/A   Mostly Cloudy
6:51 PM 79.0 °F - 70.0 °F 74% 29.79 in 10.0 mi East 5.8 mph - N/A   Mostly Cloudy
7:51 PM 79.0 °F - 70.0 °F 74% 29.80 in 10.0 mi East 8.1 mph - N/A   Mostly Cloudy
8:51 PM 78.1 °F - 70.0 °F 76% 29.82 in 10.0 mi Variable 4.6 mph - N/A   Scattered Clouds
9:51 PM 78.8 °F - 71.6 °F 78% 29.85 in 10.0 mi SSE 4.6 mph - N/A   Mostly Cloudy
10:51 PM 77.0 °F - 69.8 °F 78% 29.85 in 10.0 mi SW 4.6 mph - N/A   Mostly Cloudy
11:51 PM 75.9 °F - 70.0 °F 82% 29.83 in 10.0 mi WSW 4.6 mph - N/A   Overcast